Time,TemperatureF,DewpointF,PressureIn,WindDirection,WindDirectionDegrees,WindSpeedMPH,WindSpeedGustMPH,Humidity,HourlyPrecipIn,Conditions,Clouds,dailyrainin,SoftwareType,DateUTC
2013-05-08 00:03:00,64.3,53.1,29.93,SE,146,4.0,5.0,67,0.00,,,0.00,LWC2 V0.39 B123,2013-05-08 06:03:00,
2013-05-08 00:08:00,64.6,53.4,29.93,SE,134,2.0,5.0,67,0.00,,,0.00,LWC2 V0.39 B123,2013-05-08 06:08:00,
2013-05-08 00:13:00,64.8,53.6,29.92,ESE,115,7.0,7.0,67,0.00,,,0.00,LWC2 V0.39 B123,2013-05-08 06:13:00,
2013-05-08 00:18:00,64.8,53.6,29.92,SE,124,3.0,7.0,67,0.00,,,0.00,LWC2 V0.39 B123,2013-05-08 06:18:00,
2013-05-08 00:23:00,64.7,53.5,29.92,SSE,164,5.0,6.0,67,0.00,,,0.00,LWC2 V0.39 B123,2013-05-08 06:23:00,
2013-05-08 00:28:00,64.5,53.3,29.92,SE,135,4.0,6.0,67,0.00,,,0.00,LWC2 V0.39 B123,2013-05-08 06:28:00,
2013-05-08 00:33:00,64.4,53.2,29.92,ESE,121,2.0,5.0,67,0.00,,,0.00,LWC2 V0.39 B123,2013-05-08 06:33:00,
2013-05-08 00:38:00,64.0,53.2,29.92,ESE,122,3.0,4.0,68,0.00,,,0.00,LWC2 V0.39 B123,2013-05-08 06:38:00,
2013-05-08 00:43:00,63.6,53.2,29.92,SSE,158,3.0,6.0,69,0.00,,,0.00,LWC2 V0.39 B123,2013-05-08 06:43:00,
2013-05-08 00:48:00,63.2,53.2,29.92,SE,134,2.0,4.0,70,0.00,,,0.00,LWC2 V0.39 B123,2013-05-08 06:48:00,
2013-05-08 00:53:00,63.0,53.1,29.91,SE,137,3.0,4.0,70,0.00,,,0.00,LWC2 V0.39 B123,2013-05-08 06:53:00,
2013-05-08 00:58:00,62.8,53.3,29.91,SSE,161,1.0,4.0,71,0.00,,,0.00,LWC2 V0.39 B123,2013-05-08 06:58:00,
2013-05-08 01:03:00,62.8,53.3,29.91,SSE,155,3.0,4.0,71,0.00,,,0.00,LWC2 V0.39 B123,2013-05-08 07:03:00,
2013-05-08 01:08:00,62.6,53.4,29.91,SE,145,4.0,4.0,72,0.00,,,0.00,LWC2 V0.39 B123,2013-05-08 07:08:00,
2013-05-08 01:13:00,62.4,53.2,29.91,South,187,3.0,5.0,72,0.00,,,0.00,LWC2 V0.39 B123,2013-05-08 07:13:00,
2013-05-08 01:18:00,62.2,53.1,29.91,SE,135,2.0,5.0,72,0.00,,,0.00,LWC2 V0.39 B123,2013-05-08 07:18:00,
2013-05-08 01:23:00,62.2,53.1,29.91,SE,133,4.0,6.0,72,0.00,,,0.00,LWC2 V0.39 B123,2013-05-08 07:23:00,
2013-05-08 01:28:00,62.2,53.4,29.91,SSE,153,4.0,4.0,73,0.00,,,0.00,LWC2 V0.39 B123,2013-05-08 07:28:00,
2013-05-08 01:33:00,62.1,53.3,29.90,ESE,120,3.0,5.0,73,0.00,,,0.00,LWC2 V0.39 B123,2013-05-08 07:33:00,
2013-05-08 01:38:00,61.9,53.1,29.90,SE,129,2.0,4.0,73,0.00,,,0.00,LWC2 V0.39 B123,2013-05-08 07:38:00,
2013-05-08 01:43:00,61.7,53.0,29.90,ESE,121,1.0,4.0,73,0.00,,,0.00,LWC2 V0.39 B123,2013-05-08 07:43:00,
2013-05-08 01:48:00,61.8,53.0,29.90,SE,145,2.0,3.0,73,0.00,,,0.00,LWC2 V0.39 B123,2013-05-08 07:48:00,
2013-05-08 01:53:00,62.0,53.2,29.90,South,179,4.0,4.0,73,0.00,,,0.00,LWC2 V0.39 B123,2013-05-08 07:53:00,
2013-05-08 01:58:00,62.0,53.2,29.90,SSE,157,3.0,4.0,73,0.00,,,0.00,LWC2 V0.39 B123,2013-05-08 07:58:00,
2013-05-08 02:03:00,62.5,53.3,29.90,SE,136,2.0,5.0,72,0.00,,,0.00,LWC2 V0.39 B123,2013-05-08 08:03:00,
2013-05-08 02:08:00,63.1,53.5,29.90,South,188,3.0,5.0,71,0.00,,,0.00,LWC2 V0.39 B123,2013-05-08 08:08:00,
2013-05-08 02:13:00,63.8,53.4,29.89,SE,135,6.0,8.0,69,0.00,,,0.00,LWC2 V0.39 B123,2013-05-08 08:13:00,
2013-05-08 02:18:00,64.4,53.6,29.89,SSE,153,3.0,6.0,68,0.00,,,0.00,LWC2 V0.39 B123,2013-05-08 08:18:00,
2013-05-08 02:23:00,64.7,53.5,29.89,South,186,3.0,10.0,67,0.00,,,0.00,LWC2 V0.39 B123,2013-05-08 08:23:00,
2013-05-08 02:28:00,64.9,53.3,29.89,SW,226,3.0,4.0,66,0.00,,,0.00,LWC2 V0.39 B123,2013-05-08 08:28:00,
2013-05-08 02:33:00,65.0,53.4,29.88,SE,124,2.0,8.0,66,0.00,,,0.00,LWC2 V0.39 B123,2013-05-08 08:33:00,
2013-05-08 02:38:00,65.1,53.5,29.88,SE,146,3.0,10.0,66,0.00,,,0.00,LWC2 V0.39 B123,2013-05-08 08:38:00,
2013-05-08 02:43:00,65.0,53.4,29.88,SSE,164,4.0,6.0,66,0.00,,,0.00,LWC2 V0.39 B123,2013-05-08 08:43:00,
2013-05-08 02:48:00,64.8,53.2,29.88,SSE,165,4.0,7.0,66,0.00,,,0.00,LWC2 V0.39 B123,2013-05-08 08:48:00,
2013-05-08 02:53:00,64.7,53.1,29.87,SE,143,6.0,7.0,66,0.00,,,0.00,LWC2 V0.39 B123,2013-05-08 08:53:00,
2013-05-08 02:58:00,64.5,52.9,29.87,SE,146,3.0,8.0,66,0.00,,,0.00,LWC2 V0.39 B123,2013-05-08 08:58:00,
2013-05-08 03:03:00,64.4,52.8,29.87,South,188,4.0,9.0,66,0.00,,,0.00,LWC2 V0.39 B123,2013-05-08 09:03:00,
2013-05-08 03:08:00,64.5,52.9,29.87,SSE,151,5.0,6.0,66,0.00,,,0.00,LWC2 V0.39 B123,2013-05-08 09:08:00,
2013-05-08 03:13:00,64.5,52.9,29.87,SE,146,3.0,6.0,66,0.00,,,0.00,LWC2 V0.39 B123,2013-05-08 09:13:00,
2013-05-08 03:18:00,64.5,52.9,29.88,South,173,3.0,4.0,66,0.00,,,0.00,LWC2 V0.39 B123,2013-05-08 09:18:00,
2013-05-08 03:23:00,64.6,53.0,29.88,SSE,165,4.0,5.0,66,0.00,,,0.00,LWC2 V0.39 B123,2013-05-08 09:23:00,
2013-05-08 03:28:00,64.4,52.8,29.88,SSE,148,3.0,5.0,66,0.00,,,0.00,LWC2 V0.39 B123,2013-05-08 09:28:00,
2013-05-08 03:33:00,64.1,52.9,29.88,SSE,152,2.0,5.0,67,0.00,,,0.00,LWC2 V0.39 B123,2013-05-08 09:33:00,
2013-05-08 03:38:00,63.8,52.6,29.88,SE,135,3.0,5.0,67,0.00,,,0.00,LWC2 V0.39 B123,2013-05-08 09:38:00,
2013-05-08 03:43:00,63.6,52.4,29.88,SSE,150,2.0,6.0,67,0.00,,,0.00,LWC2 V0.39 B123,2013-05-08 09:43:00,
2013-05-08 03:48:00,63.4,52.6,29.88,SE,136,3.0,5.0,68,0.00,,,0.00,LWC2 V0.39 B123,2013-05-08 09:48:00,
2013-05-08 03:53:00,63.3,52.6,29.88,SSE,159,2.0,6.0,68,0.00,,,0.00,LWC2 V0.39 B123,2013-05-08 09:53:00,
2013-05-08 03:58:00,63.1,52.4,29.88,SE,129,1.0,3.0,68,0.00,,,0.00,LWC2 V0.39 B123,2013-05-08 09:58:00,
2013-05-08 04:03:00,63.0,52.3,29.88,ESE,117,2.0,8.0,68,0.00,,,0.00,LWC2 V0.39 B123,2013-05-08 10:03:00,
2013-05-08 04:08:00,63.1,52.4,29.88,SSE,165,4.0,4.0,68,0.00,,,0.00,LWC2 V0.39 B123,2013-05-08 10:08:00,
2013-05-08 04:13:00,63.2,52.5,29.88,SE,135,3.0,3.0,68,0.00,,,0.00,LWC2 V0.39 B123,2013-05-08 10:13:00,
2013-05-08 04:18:00,63.3,52.6,29.88,SE,135,2.0,4.0,68,0.00,,,0.00,LWC2 V0.39 B123,2013-05-08 10:18:00,
2013-05-08 04:23:00,63.3,52.6,29.88,SE,124,3.0,4.0,68,0.00,,,0.00,LWC2 V0.39 B123,2013-05-08 10:23:00,
2013-05-08 04:28:00,63.3,52.6,29.88,South,179,4.0,8.0,68,0.00,,,0.00,LWC2 V0.39 B123,2013-05-08 10:28:00,
2013-05-08 04:33:00,63.4,52.6,29.88,ESE,111,2.0,3.0,68,0.00,,,0.00,LWC2 V0.39 B123,2013-05-08 10:33:00,
2013-05-08 04:38:00,63.2,52.5,29.88,SE,139,3.0,4.0,68,0.00,,,0.00,LWC2 V0.39 B123,2013-05-08 10:38:00,
2013-05-08 04:43:00,63.3,52.6,29.89,South,170,4.0,6.0,68,0.00,,,0.00,LWC2 V0.39 B123,2013-05-08 10:43:00,
2013-05-08 04:48:00,63.3,52.6,29.89,South,174,6.0,6.0,68,0.00,,,0.00,LWC2 V0.39 B123,2013-05-08 10:48:00,
2013-05-08 04:53:00,63.3,52.6,29.89,SE,142,2.0,7.0,68,0.00,,,0.00,LWC2 V0.39 B123,2013-05-08 10:53:00,
2013-05-08 04:58:00,63.1,52.4,29.89,South,188,3.0,5.0,68,0.00,,,0.00,LWC2 V0.39 B123,2013-05-08 10:58:00,
2013-05-08 05:03:00,63.0,52.3,29.89,South,187,2.0,4.0,68,0.00,,,0.00,LWC2 V0.39 B123,2013-05-08 11:03:00,
2013-05-08 05:08:00,63.0,52.7,29.89,SE,145,2.0,4.0,69,0.00,,,0.00,LWC2 V0.39 B123,2013-05-08 11:08:00,
2013-05-08 05:13:00,62.8,52.5,29.89,ESE,120,0.0,5.0,69,0.00,,,0.00,LWC2 V0.39 B123,2013-05-08 11:13:00,
2013-05-08 05:18:00,62.6,52.3,29.89,SE,138,2.0,5.0,69,0.00,,,0.00,LWC2 V0.39 B123,2013-05-08 11:18:00,
2013-05-08 05:23:00,62.4,52.5,29.90,SE,145,1.0,5.0,70,0.00,,,0.00,LWC2 V0.39 B123,2013-05-08 11:23:00,
2013-05-08 05:28:00,62.4,52.5,29.90,SE,127,3.0,5.0,70,0.00,,,0.00,LWC2 V0.39 B123,2013-05-08 11:28:00,
2013-05-08 05:33:00,62.6,52.7,29.90,SSE,155,3.0,4.0,70,0.00,,,0.00,LWC2 V0.39 B123,2013-05-08 11:33:00,
2013-05-08 05:38:00,62.5,52.6,29.90,ESE,104,6.0,6.0,70,0.00,,,0.00,LWC2 V0.39 B123,2013-05-08 11:38:00,
2013-05-08 05:43:00,62.4,52.9,29.90,South,186,3.0,5.0,71,0.00,,,0.00,LWC2 V0.39 B123,2013-05-08 11:43:00,
2013-05-08 05:48:00,62.3,52.8,29.90,SE,126,4.0,6.0,71,0.00,,,0.00,LWC2 V0.39 B123,2013-05-08 11:48:00,
2013-05-08 05:53:00,62.3,53.2,29.90,SSE,156,6.0,6.0,72,0.00,,,0.00,LWC2 V0.39 B123,2013-05-08 11:53:00,
2013-05-08 05:58:00,62.3,53.2,29.90,South,181,3.0,6.0,72,0.00,,,0.00,LWC2 V0.39 B123,2013-05-08 11:58:00,
2013-05-08 06:03:00,62.4,53.2,29.90,South,186,4.0,6.0,72,0.00,,,0.00,LWC2 V0.39 B123,2013-05-08 12:03:00,
2013-05-08 06:08:00,62.6,53.4,29.90,ESE,113,3.0,7.0,72,0.00,,,0.00,LWC2 V0.39 B123,2013-05-08 12:08:00,
2013-05-08 06:13:00,62.7,53.5,29.90,SSW,201,5.0,7.0,72,0.00,,,0.00,LWC2 V0.39 B123,2013-05-08 12:13:00,
2013-05-08 06:18:00,62.8,53.3,29.90,ESE,113,3.0,8.0,71,0.00,,,0.00,LWC2 V0.39 B123,2013-05-08 12:18:00,
2013-05-08 06:23:00,62.9,53.7,29.90,ESE,121,8.0,8.0,72,0.00,,,0.00,LWC2 V0.39 B123,2013-05-08 12:23:00,
2013-05-08 06:28:00,63.3,53.7,29.90,SE,129,3.0,7.0,71,0.00,,,0.00,LWC2 V0.39 B123,2013-05-08 12:28:00,
2013-05-08 06:33:00,63.9,54.3,29.90,South,181,2.0,4.0,71,0.00,,,0.00,LWC2 V0.39 B123,2013-05-08 12:33:00,
2013-05-08 06:38:00,64.3,54.3,29.91,South,174,2.0,6.0,70,0.00,,,0.00,LWC2 V0.39 B123,2013-05-08 12:38:00,
2013-05-08 06:43:00,64.7,54.3,29.91,East,98,1.0,5.0,69,0.00,,,0.00,LWC2 V0.39 B123,2013-05-08 12:43:00,
2013-05-08 06:48:00,65.0,54.6,29.92,ESE,113,1.0,4.0,69,0.00,,,0.00,LWC2 V0.39 B123,2013-05-08 12:48:00,
2013-05-08 06:53:00,65.4,55.0,29.92,East,92,0.0,1.0,69,0.00,,,0.00,LWC2 V0.39 B123,2013-05-08 12:53:00,
2013-05-08 06:58:00,65.9,55.8,29.93,NE,41,2.0,2.0,70,0.00,,,0.00,LWC2 V0.39 B123,2013-05-08 12:58:00,
2013-05-08 07:03:00,66.1,56.0,29.93,NE,54,1.0,3.0,70,0.00,,,0.00,LWC2 V0.39 B123,2013-05-08 13:03:00,
2013-05-08 07:08:00,66.3,55.4,29.93,ESE,105,1.0,3.0,68,0.00,,,0.00,LWC2 V0.39 B123,2013-05-08 13:08:00,
2013-05-08 07:13:00,66.6,55.3,29.93,ESE,110,2.0,4.0,67,0.00,,,0.00,LWC2 V0.39 B123,2013-05-08 13:13:00,
2013-05-08 07:18:00,66.4,55.9,29.94,SE,128,1.0,3.0,69,0.00,,,0.00,LWC2 V0.39 B123,2013-05-08 13:18:00,
2013-05-08 07:23:00,66.2,56.1,29.94,SE,146,1.0,2.0,70,0.00,,,0.00,LWC2 V0.39 B123,2013-05-08 13:23:00,
2013-05-08 07:28:00,66.2,55.7,29.94,ESE,121,3.0,4.0,69,0.00,,,0.00,LWC2 V0.39 B123,2013-05-08 13:28:00,
2013-05-08 07:33:00,66.6,56.1,29.94,ESE,118,1.0,3.0,69,0.00,,,0.00,LWC2 V0.39 B123,2013-05-08 13:33:00,
2013-05-08 07:38:00,66.9,56.4,29.94,ESE,114,2.0,5.0,69,0.00,,,0.00,LWC2 V0.39 B123,2013-05-08 13:38:00,
2013-05-08 07:43:00,67.0,56.5,29.94,SE,126,2.0,3.0,69,0.00,,,0.00,LWC2 V0.39 B123,2013-05-08 13:43:00,
2013-05-08 07:48:00,67.1,56.6,29.94,ESE,115,3.0,4.0,69,0.00,,,0.00,LWC2 V0.39 B123,2013-05-08 13:48:00,
2013-05-08 07:53:00,67.2,56.7,29.95,East,99,1.0,4.0,69,0.00,,,0.00,LWC2 V0.39 B123,2013-05-08 13:53:00,
2013-05-08 07:58:00,67.3,56.8,29.94,SE,125,0.0,1.0,69,0.00,,,0.00,LWC2 V0.39 B123,2013-05-08 13:58:00,
2013-05-08 08:03:00,67.3,56.8,29.95,ESE,114,2.0,3.0,69,0.00,,,0.00,LWC2 V0.39 B123,2013-05-08 14:03:00,
2013-05-08 08:08:00,67.3,56.8,29.94,ESE,123,2.0,5.0,69,0.00,,,0.00,LWC2 V0.39 B123,2013-05-08 14:08:00,
2013-05-08 08:13:00,67.6,56.7,29.95,SE,146,3.0,5.0,68,0.00,,,0.00,LWC2 V0.39 B123,2013-05-08 14:13:00,
2013-05-08 08:18:00,67.9,56.9,29.94,SE,134,4.0,5.0,68,0.00,,,0.00,LWC2 V0.39 B123,2013-05-08 14:18:00,
2013-05-08 08:23:00,67.7,56.7,29.95,ESE,118,5.0,5.0,68,0.00,,,0.00,LWC2 V0.39 B123,2013-05-08 14:23:00,
2013-05-08 08:28:00,67.5,57.4,29.95,SSE,156,4.0,5.0,70,0.00,,,0.00,LWC2 V0.39 B123,2013-05-08 14:28:00,
2013-05-08 08:33:00,67.7,57.9,29.95,SSE,155,2.0,3.0,71,0.00,,,0.00,LWC2 V0.39 B123,2013-05-08 14:33:00,
2013-05-08 08:38:00,67.8,57.6,29.96,SSE,148,4.0,4.0,70,0.00,,,0.00,LWC2 V0.39 B123,2013-05-08 14:38:00,
2013-05-08 08:43:00,68.3,58.1,29.96,East,101,2.0,5.0,70,0.00,,,0.00,LWC2 V0.39 B123,2013-05-08 14:43:00,
2013-05-08 08:48:00,68.6,58.8,29.97,East,86,0.0,3.0,71,0.00,,,0.00,LWC2 V0.39 B123,2013-05-08 14:48:00,
2013-05-08 08:53:00,68.8,59.0,29.97,East,96,0.0,3.0,71,0.00,,,0.00,LWC2 V0.39 B123,2013-05-08 14:53:00,
2013-05-08 08:58:00,68.8,58.2,29.98,ENE,71,0.0,2.0,69,0.00,,,0.00,LWC2 V0.39 B123,2013-05-08 14:58:00,
2013-05-08 09:03:00,68.8,58.6,29.98,ESE,105,0.0,1.0,70,0.00,,,0.00,LWC2 V0.39 B123,2013-05-08 15:03:00,
2013-05-08 09:08:00,68.8,58.6,29.97,ESE,104,0.0,2.0,70,0.00,,,0.00,LWC2 V0.39 B123,2013-05-08 15:08:00,
2013-05-08 09:13:00,69.0,59.2,29.97,ESE,110,0.0,1.0,71,0.00,,,0.00,LWC2 V0.39 B123,2013-05-08 15:13:00,
2013-05-08 09:18:00,69.2,59.0,29.98,SSE,149,2.0,4.0,70,0.00,,,0.00,LWC2 V0.39 B123,2013-05-08 15:18:00,
2013-05-08 09:23:00,69.4,59.2,29.98,ESE,117,0.0,2.0,70,0.00,,,0.00,LWC2 V0.39 B123,2013-05-08 15:23:00,
2013-05-08 09:28:00,70.2,59.9,29.98,ESE,118,0.0,2.0,70,0.00,,,0.00,LWC2 V0.39 B123,2013-05-08 15:28:00,
2013-05-08 09:33:00,71.4,60.7,29.97,East,90,0.0,2.0,69,0.00,,,0.00,LWC2 V0.39 B123,2013-05-08 15:33:00,
2013-05-08 09:38:00,72.5,60.5,29.98,ESE,121,0.0,3.0,66,0.00,,,0.00,LWC2 V0.39 B123,2013-05-08 15:38:00,
2013-05-08 09:43:00,73.4,60.9,29.97,ESE,118,5.0,5.0,65,0.00,,,0.00,LWC2 V0.39 B123,2013-05-08 15:43:00,
2013-05-08 09:48:00,73.4,60.0,29.97,SE,141,4.0,4.0,63,0.00,,,0.00,LWC2 V0.39 B123,2013-05-08 15:48:00,
2013-05-08 09:53:00,74.2,60.3,29.97,ENE,68,1.0,4.0,62,0.00,,,0.00,LWC2 V0.39 B123,2013-05-08 15:53:00,
2013-05-08 09:58:00,74.6,59.8,29.97,ESE,110,2.0,5.0,60,0.00,,,0.00,LWC2 V0.39 B123,2013-05-08 15:58:00,
2013-05-08 10:03:00,74.9,59.6,29.96,SSE,162,2.0,5.0,59,0.00,,,0.00,LWC2 V0.39 B123,2013-05-08 16:03:00,
2013-05-08 10:08:00,74.9,59.6,29.96,SE,138,2.0,4.0,59,0.00,,,0.00,LWC2 V0.39 B123,2013-05-08 16:08:00,
2013-05-08 10:13:00,75.3,60.0,29.96,ESE,119,3.0,4.0,59,0.00,,,0.00,LWC2 V0.39 B123,2013-05-08 16:13:00,
2013-05-08 10:18:00,75.2,58.9,29.96,WSW,242,4.0,5.0,57,0.00,,,0.00,LWC2 V0.39 B123,2013-05-08 16:18:00,
2013-05-08 10:23:00,75.8,59.5,29.95,ESE,108,3.0,6.0,57,0.00,,,0.00,LWC2 V0.39 B123,2013-05-08 16:23:00,
2013-05-08 10:28:00,75.8,59.0,29.95,ESE,115,4.0,6.0,56,0.00,,,0.00,LWC2 V0.39 B123,2013-05-08 16:28:00,
2013-05-08 10:33:00,76.9,59.5,29.95,NNE,22,1.0,6.0,55,0.00,,,0.00,LWC2 V0.39 B123,2013-05-08 16:33:00,
2013-05-08 10:38:00,77.1,60.7,29.95,SW,221,3.0,6.0,57,0.00,,,0.00,LWC2 V0.39 B123,2013-05-08 16:38:00,
2013-05-08 10:43:00,77.7,60.2,29.95,WSW,238,2.0,6.0,55,0.00,,,0.00,LWC2 V0.39 B123,2013-05-08 16:43:00,
2013-05-08 10:48:00,77.6,59.1,29.95,SSW,197,3.0,7.0,53,0.00,,,0.00,LWC2 V0.39 B123,2013-05-08 16:48:00,
2013-05-08 10:53:00,77.3,59.3,29.95,ESE,113,6.0,8.0,54,0.00,,,0.00,LWC2 V0.39 B123,2013-05-08 16:53:00,
2013-05-08 10:58:00,77.2,60.3,29.94,SE,136,2.0,6.0,56,0.00,,,0.00,LWC2 V0.39 B123,2013-05-08 16:58:00,
2013-05-08 11:03:00,78.3,60.3,29.94,ESE,123,3.0,6.0,54,0.00,,,0.00,LWC2 V0.39 B123,2013-05-08 17:03:00,
2013-05-08 11:08:00,78.3,60.3,29.94,WSW,240,9.0,9.0,54,0.00,,,0.00,LWC2 V0.39 B123,2013-05-08 17:08:00,
2013-05-08 11:13:00,78.2,59.6,29.93,ESE,105,3.0,11.0,53,0.00,,,0.00,LWC2 V0.39 B123,2013-05-08 17:13:00,
2013-05-08 11:18:00,78.1,59.6,29.93,East,94,8.0,9.0,53,0.00,,,0.00,LWC2 V0.39 B123,2013-05-08 17:18:00,
2013-05-08 11:23:00,78.4,59.8,29.92,South,172,6.0,8.0,53,0.00,,,0.00,LWC2 V0.39 B123,2013-05-08 17:23:00,
2013-05-08 11:28:00,78.6,60.0,29.92,SSE,162,3.0,10.0,53,0.00,,,0.00,LWC2 V0.39 B123,2013-05-08 17:28:00,
2013-05-08 11:33:00,79.1,61.0,29.92,SW,231,7.0,7.0,54,0.00,,,0.00,LWC2 V0.39 B123,2013-05-08 17:33:00,
2013-05-08 11:38:00,79.9,61.2,29.92,WSW,250,5.0,11.0,53,0.00,,,0.00,LWC2 V0.39 B123,2013-05-08 17:38:00,
2013-05-08 11:43:00,79.4,59.7,29.92,SSW,194,4.0,11.0,51,0.00,,,0.00,LWC2 V0.39 B123,2013-05-08 17:43:00,
2013-05-08 11:48:00,79.5,60.3,29.91,SE,133,8.0,13.0,52,0.00,,,0.00,LWC2 V0.39 B123,2013-05-08 17:48:00,
2013-05-08 11:53:00,80.5,61.2,29.91,East,84,3.0,9.0,52,0.00,,,0.00,LWC2 V0.39 B123,2013-05-08 17:53:00,
2013-05-08 11:58:00,80.2,60.4,29.91,SE,132,8.0,12.0,51,0.00,,,0.00,LWC2 V0.39 B123,2013-05-08 17:58:00,
2013-05-08 12:03:00,80.2,61.0,29.91,South,169,4.0,10.0,52,0.00,,,0.00,LWC2 V0.39 B123,2013-05-08 18:03:00,
2013-05-08 12:08:00,81.4,60.9,29.90,SSE,158,4.0,10.0,50,0.00,,,0.00,LWC2 V0.39 B123,2013-05-08 18:08:00,
2013-05-08 12:13:00,82.1,62.1,29.90,SE,145,6.0,11.0,51,0.00,,,0.00,LWC2 V0.39 B123,2013-05-08 18:13:00,
2013-05-08 12:18:00,82.5,61.4,29.90,SSE,149,6.0,10.0,49,0.00,,,0.00,LWC2 V0.39 B123,2013-05-08 18:18:00,
2013-05-08 12:23:00,82.4,60.7,29.90,ESE,118,4.0,8.0,48,0.00,,,0.00,LWC2 V0.39 B123,2013-05-08 18:23:00,
2013-05-08 12:28:00,82.4,60.7,29.90,WSW,256,9.0,9.0,48,0.00,,,0.00,LWC2 V0.39 B123,2013-05-08 18:28:00,
2013-05-08 12:33:00,82.5,61.4,29.90,SW,221,7.0,10.0,49,0.00,,,0.00,LWC2 V0.39 B123,2013-05-08 18:33:00,
2013-05-08 12:38:00,83.0,61.8,29.90,SSE,150,6.0,7.0,49,0.00,,,0.00,LWC2 V0.39 B123,2013-05-08 18:38:00,
2013-05-08 12:43:00,83.4,62.8,29.90,WSW,238,9.0,9.0,50,0.00,,,0.00,LWC2 V0.39 B123,2013-05-08 18:43:00,
2013-05-08 12:48:00,83.2,63.2,29.89,SSE,159,5.0,7.0,51,0.00,,,0.00,LWC2 V0.39 B123,2013-05-08 18:48:00,
2013-05-08 12:53:00,83.4,62.2,29.89,South,172,3.0,9.0,49,0.00,,,0.00,LWC2 V0.39 B123,2013-05-08 18:53:00,
2013-05-08 12:58:00,83.6,61.8,29.89,WSW,253,5.0,11.0,48,0.00,,,0.00,LWC2 V0.39 B123,2013-05-08 18:58:00,
2013-05-08 13:03:00,83.9,62.7,29.89,SSW,204,5.0,8.0,49,0.00,,,0.00,LWC2 V0.39 B123,2013-05-08 19:03:00,
2013-05-08 13:08:00,84.5,62.6,29.89,SSW,199,3.0,9.0,48,0.00,,,0.00,LWC2 V0.39 B123,2013-05-08 19:08:00,
2013-05-08 13:13:00,83.6,61.2,29.89,South,190,5.0,6.0,47,0.00,,,0.00,LWC2 V0.39 B123,2013-05-08 19:13:00,
2013-05-08 13:18:00,82.7,61.6,29.89,South,188,12.0,12.0,49,0.00,,,0.00,LWC2 V0.39 B123,2013-05-08 19:18:00,
2013-05-08 13:23:00,83.1,63.6,29.88,SW,224,8.0,8.0,52,0.00,,,0.00,LWC2 V0.39 B123,2013-05-08 19:23:00,
2013-05-08 13:28:00,83.6,63.0,29.88,SE,139,10.0,13.0,50,0.00,,,0.00,LWC2 V0.39 B123,2013-05-08 19:28:00,
2013-05-08 13:33:00,84.1,61.7,29.88,WSW,249,4.0,13.0,47,0.00,,,0.00,LWC2 V0.39 B123,2013-05-08 19:33:00,
2013-05-08 13:38:00,84.0,61.6,29.87,SSW,200,8.0,15.0,47,0.00,,,0.00,LWC2 V0.39 B123,2013-05-08 19:38:00,
2013-05-08 13:43:00,84.3,62.4,29.87,South,183,3.0,7.0,48,0.00,,,0.00,LWC2 V0.39 B123,2013-05-08 19:43:00,
2013-05-08 13:48:00,84.8,61.7,29.87,SSE,152,6.0,7.0,46,0.00,,,0.00,LWC2 V0.39 B123,2013-05-08 19:48:00,
2013-05-08 13:53:00,85.2,64.4,29.86,SSE,148,3.0,7.0,50,0.00,,,0.00,LWC2 V0.39 B123,2013-05-08 19:53:00,
2013-05-08 13:58:00,84.8,61.1,29.86,SSW,203,8.0,9.0,45,0.00,,,0.00,LWC2 V0.39 B123,2013-05-08 19:58:00,
2013-05-08 14:03:00,84.6,61.5,29.86,ESE,121,2.0,8.0,46,0.00,,,0.00,LWC2 V0.39 B123,2013-05-08 20:03:00,
2013-05-08 14:08:00,85.0,60.6,29.86,South,184,6.0,12.0,44,0.00,,,0.00,LWC2 V0.39 B123,2013-05-08 20:08:00,
2013-05-08 14:13:00,85.0,60.6,29.86,SW,221,6.0,13.0,44,0.00,,,0.00,LWC2 V0.39 B123,2013-05-08 20:13:00,
2013-05-08 14:18:00,84.1,59.2,29.85,SSE,155,5.0,8.0,43,0.00,,,0.00,LWC2 V0.39 B123,2013-05-08 20:18:00,
2013-05-08 14:23:00,84.0,60.3,29.85,SSW,197,7.0,8.0,45,0.00,,,0.00,LWC2 V0.39 B123,2013-05-08 20:23:00,
2013-05-08 14:28:00,83.7,60.7,29.86,SSW,198,6.0,9.0,46,0.00,,,0.00,LWC2 V0.39 B123,2013-05-08 20:28:00,
2013-05-08 14:33:00,84.1,60.4,29.85,SE,143,4.0,7.0,45,0.00,,,0.00,LWC2 V0.39 B123,2013-05-08 20:33:00,
2013-05-08 14:38:00,84.5,60.2,29.84,WSW,242,7.0,10.0,44,0.00,,,0.00,LWC2 V0.39 B123,2013-05-08 20:38:00,
2013-05-08 14:43:00,84.5,60.2,29.84,South,177,3.0,11.0,44,0.00,,,0.00,LWC2 V0.39 B123,2013-05-08 20:43:00,
2013-05-08 14:48:00,85.4,61.0,29.84,SW,229,8.0,10.0,44,0.00,,,0.00,LWC2 V0.39 B123,2013-05-08 20:48:00,
2013-05-08 14:53:00,85.4,59.0,29.83,SSW,193,4.0,11.0,41,0.00,,,0.00,LWC2 V0.39 B123,2013-05-08 20:53:00,
2013-05-08 14:58:00,85.1,57.3,29.83,SE,144,5.0,11.0,39,0.00,,,0.00,LWC2 V0.39 B123,2013-05-08 20:58:00,
2013-05-08 15:03:00,85.0,57.2,29.83,SSW,194,7.0,9.0,39,0.00,,,0.00,LWC2 V0.39 B123,2013-05-08 21:03:00,
2013-05-08 15:08:00,85.1,57.3,29.83,South,179,6.0,9.0,39,0.00,,,0.00,LWC2 V0.39 B123,2013-05-08 21:08:00,
2013-05-08 15:13:00,84.5,56.8,29.83,WSW,252,5.0,7.0,39,0.00,,,0.00,LWC2 V0.39 B123,2013-05-08 21:13:00,
2013-05-08 15:18:00,84.1,57.8,29.83,WSW,239,5.0,7.0,41,0.00,,,0.00,LWC2 V0.39 B123,2013-05-08 21:18:00,
2013-05-08 15:23:00,83.6,58.0,29.83,SSW,198,3.0,7.0,42,0.00,,,0.00,LWC2 V0.39 B123,2013-05-08 21:23:00,
2013-05-08 15:28:00,83.3,57.8,29.83,South,181,5.0,10.0,42,0.00,,,0.00,LWC2 V0.39 B123,2013-05-08 21:28:00,
2013-05-08 15:33:00,83.3,56.4,29.82,SW,235,9.0,13.0,40,0.00,,,0.00,LWC2 V0.39 B123,2013-05-08 21:33:00,
2013-05-08 15:38:00,84.2,57.9,29.82,SSW,200,3.0,10.0,41,0.00,,,0.00,LWC2 V0.39 B123,2013-05-08 21:38:00,
2013-05-08 15:43:00,85.1,56.6,29.82,WSW,243,5.0,12.0,38,0.00,,,0.00,LWC2 V0.39 B123,2013-05-08 21:43:00,
2013-05-08 15:48:00,84.9,54.9,29.82,South,184,3.0,11.0,36,0.00,,,0.00,LWC2 V0.39 B123,2013-05-08 21:48:00,
2013-05-08 15:53:00,84.3,55.2,29.82,SSE,165,3.0,14.0,37,0.00,,,0.00,LWC2 V0.39 B123,2013-05-08 21:53:00,
2013-05-08 15:58:00,84.5,56.8,29.82,SSW,202,6.0,12.0,39,0.00,,,0.00,LWC2 V0.39 B123,2013-05-08 21:58:00,
2013-05-08 16:03:00,84.1,57.1,29.81,WSW,255,2.0,12.0,40,0.00,,,0.00,LWC2 V0.39 B123,2013-05-08 22:03:00,
2013-05-08 16:08:00,83.7,57.5,29.81,SSW,201,7.0,12.0,41,0.00,,,0.00,LWC2 V0.39 B123,2013-05-08 22:08:00,
2013-05-08 16:13:00,83.4,57.9,29.81,South,176,6.0,9.0,42,0.00,,,0.00,LWC2 V0.39 B123,2013-05-08 22:13:00,
2013-05-08 16:18:00,83.2,57.7,29.81,SSE,156,6.0,10.0,42,0.00,,,0.00,LWC2 V0.39 B123,2013-05-08 22:18:00,
2013-05-08 16:23:00,83.0,56.8,29.81,SSW,195,7.0,11.0,41,0.00,,,0.00,LWC2 V0.39 B123,2013-05-08 22:23:00,
2013-05-08 16:28:00,82.9,56.1,29.82,SSE,167,5.0,11.0,40,0.00,,,0.00,LWC2 V0.39 B123,2013-05-08 22:28:00,
2013-05-08 16:33:00,82.7,55.2,29.82,SSW,210,9.0,15.0,39,0.00,,,0.00,LWC2 V0.39 B123,2013-05-08 22:33:00,
2013-05-08 16:38:00,82.3,53.4,29.82,WSW,239,8.0,14.0,37,0.00,,,0.00,LWC2 V0.39 B123,2013-05-08 22:38:00,
2013-05-08 16:43:00,82.0,52.4,29.82,SSW,211,6.0,11.0,36,0.00,,,0.00,LWC2 V0.39 B123,2013-05-08 22:43:00,
2013-05-08 16:48:00,81.7,52.9,29.82,East,96,3.0,9.0,37,0.00,,,0.00,LWC2 V0.39 B123,2013-05-08 22:48:00,
2013-05-08 16:53:00,81.4,51.9,29.81,SW,221,6.0,6.0,36,0.00,,,0.00,LWC2 V0.39 B123,2013-05-08 22:53:00,
2013-05-08 16:58:00,81.2,51.7,29.81,SE,137,5.0,6.0,36,0.00,,,0.00,LWC2 V0.39 B123,2013-05-08 22:58:00,
2013-05-08 17:03:00,81.0,51.5,29.81,WSW,252,6.0,10.0,36,0.00,,,0.00,LWC2 V0.39 B123,2013-05-08 23:03:00,
2013-05-08 17:08:00,80.7,52.0,29.81,WSW,239,3.0,9.0,37,0.00,,,0.00,LWC2 V0.39 B123,2013-05-08 23:08:00,
2013-05-08 17:13:00,80.6,52.6,29.81,South,190,3.0,8.0,38,0.00,,,0.00,LWC2 V0.39 B123,2013-05-08 23:13:00,
2013-05-08 17:18:00,80.4,52.4,29.82,WSW,257,4.0,7.0,38,0.00,,,0.00,LWC2 V0.39 B123,2013-05-08 23:18:00,
2013-05-08 17:23:00,80.2,53.7,29.82,SSW,204,1.0,4.0,40,0.00,,,0.00,LWC2 V0.39 B123,2013-05-08 23:23:00,
2013-05-08 17:28:00,79.9,52.7,29.83,SSW,207,5.0,7.0,39,0.00,,,0.00,LWC2 V0.39 B123,2013-05-08 23:28:00,
2013-05-08 17:33:00,79.7,52.5,29.82,West,267,4.0,8.0,39,0.00,,,0.00,LWC2 V0.39 B123,2013-05-08 23:33:00,
2013-05-08 17:38:00,79.6,52.4,29.82,SSE,154,1.0,10.0,39,0.00,,,0.00,LWC2 V0.39 B123,2013-05-08 23:38:00,
2013-05-08 17:43:00,79.3,52.2,29.82,South,189,6.0,10.0,39,0.00,,,0.00,LWC2 V0.39 B123,2013-05-08 23:43:00,
2013-05-08 17:48:00,79.1,52.7,29.82,South,187,7.0,8.0,40,0.00,,,0.00,LWC2 V0.39 B123,2013-05-08 23:48:00,
2013-05-08 17:53:00,78.9,52.5,29.82,SE,130,3.0,11.0,40,0.00,,,0.00,LWC2 V0.39 B123,2013-05-08 23:53:00,
2013-05-08 17:58:00,78.7,53.0,29.81,SSE,166,2.0,10.0,41,0.00,,,0.00,LWC2 V0.39 B123,2013-05-08 23:58:00,
2013-05-08 18:03:00,78.4,53.4,29.82,SSE,159,3.0,6.0,42,0.00,,,0.00,LWC2 V0.39 B123,2013-05-09 00:03:00,
2013-05-08 18:08:00,78.1,53.1,29.81,South,169,3.0,5.0,42,0.00,,,0.00,LWC2 V0.39 B123,2013-05-09 00:08:00,
2013-05-08 18:13:00,77.8,53.5,29.81,SE,146,4.0,6.0,43,0.00,,,0.00,LWC2 V0.39 B123,2013-05-09 00:13:00,
2013-05-08 18:18:00,77.6,53.9,29.82,South,176,2.0,6.0,44,0.00,,,0.00,LWC2 V0.39 B123,2013-05-09 00:18:00,
2013-05-08 18:23:00,77.4,53.8,29.82,South,174,5.0,9.0,44,0.00,,,0.00,LWC2 V0.39 B123,2013-05-09 00:23:00,
2013-05-08 18:28:00,77.2,54.2,29.81,SSE,156,3.0,10.0,45,0.00,,,0.00,LWC2 V0.39 B123,2013-05-09 00:28:00,
2013-05-08 18:33:00,76.9,54.5,29.81,SSE,158,3.0,10.0,46,0.00,,,0.00,LWC2 V0.39 B123,2013-05-09 00:33:00,
2013-05-08 18:38:00,76.8,54.4,29.81,SSE,162,2.0,10.0,46,0.00,,,0.00,LWC2 V0.39 B123,2013-05-09 00:38:00,
2013-05-08 18:43:00,76.6,54.8,29.82,SSE,158,3.0,8.0,47,0.00,,,0.00,LWC2 V0.39 B123,2013-05-09 00:43:00,
2013-05-08 18:48:00,76.4,55.2,29.82,SSE,166,3.0,7.0,48,0.00,,,0.00,LWC2 V0.39 B123,2013-05-09 00:48:00,
2013-05-08 18:53:00,76.2,55.6,29.82,SE,132,8.0,9.0,49,0.00,,,0.00,LWC2 V0.39 B123,2013-05-09 00:53:00,
2013-05-08 18:58:00,76.1,56.1,29.82,ESE,120,6.0,9.0,50,0.00,,,0.00,LWC2 V0.39 B123,2013-05-09 00:58:00,
2013-05-08 19:03:00,75.9,55.9,29.82,SW,221,5.0,7.0,50,0.00,,,0.00,LWC2 V0.39 B123,2013-05-09 01:03:00,
2013-05-08 19:08:00,75.8,56.4,29.82,SW,225,7.0,11.0,51,0.00,,,0.00,LWC2 V0.39 B123,2013-05-09 01:08:00,
2013-05-08 19:13:00,75.7,56.3,29.82,South,173,8.0,8.0,51,0.00,,,0.00,LWC2 V0.39 B123,2013-05-09 01:13:00,
2013-05-08 19:18:00,75.8,56.4,29.83,South,181,5.0,9.0,51,0.00,,,0.00,LWC2 V0.39 B123,2013-05-09 01:18:00,
2013-05-08 19:23:00,75.6,56.2,29.83,SSW,193,3.0,6.0,51,0.00,,,0.00,LWC2 V0.39 B123,2013-05-09 01:23:00,
2013-05-08 19:28:00,75.5,56.6,29.83,South,177,2.0,4.0,52,0.00,,,0.00,LWC2 V0.39 B123,2013-05-09 01:28:00,
2013-05-08 19:33:00,75.3,56.4,29.83,SSE,148,3.0,3.0,52,0.00,,,0.00,LWC2 V0.39 B123,2013-05-09 01:33:00,
2013-05-08 19:38:00,75.0,56.7,29.83,SSW,193,2.0,2.0,53,0.00,,,0.00,LWC2 V0.39 B123,2013-05-09 01:38:00,
2013-05-08 19:43:00,74.7,56.9,29.83,SE,137,2.0,4.0,54,0.00,,,0.00,LWC2 V0.39 B123,2013-05-09 01:43:00,
2013-05-08 19:48:00,74.6,56.8,29.82,ESE,108,1.0,1.0,54,0.00,,,0.00,LWC2 V0.39 B123,2013-05-09 01:48:00,
2013-05-08 19:53:00,74.6,57.3,29.82,SSW,205,0.0,4.0,55,0.00,,,0.00,LWC2 V0.39 B123,2013-05-09 01:53:00,
2013-05-08 19:58:00,74.2,58.5,29.82,ESE,123,1.0,4.0,58,0.00,,,0.00,LWC2 V0.39 B123,2013-05-09 01:58:00,
2013-05-08 20:03:00,73.3,59.5,29.82,SSE,150,8.0,10.0,62,0.00,,,0.00,LWC2 V0.39 B123,2013-05-09 02:03:00,
2013-05-08 20:08:00,72.5,59.6,29.82,South,181,4.0,14.0,64,0.00,,,0.00,LWC2 V0.39 B123,2013-05-09 02:08:00,
2013-05-08 20:13:00,72.1,60.1,29.83,SSE,162,6.0,9.0,66,0.00,,,0.00,LWC2 V0.39 B123,2013-05-09 02:13:00,
2013-05-08 20:18:00,71.7,60.1,29.83,South,174,5.0,10.0,67,0.00,,,0.00,LWC2 V0.39 B123,2013-05-09 02:18:00,
2013-05-08 20:23:00,71.5,60.0,29.83,SSW,194,2.0,7.0,67,0.00,,,0.00,LWC2 V0.39 B123,2013-05-09 02:23:00,
2013-05-08 20:28:00,71.4,59.9,29.84,West,260,2.0,9.0,67,0.00,,,0.00,LWC2 V0.39 B123,2013-05-09 02:28:00,
2013-05-08 20:33:00,71.3,59.8,29.85,NW,315,3.0,9.0,67,0.00,,,0.00,LWC2 V0.39 B123,2013-05-09 02:33:00,
2013-05-08 20:38:00,71.1,60.0,29.86,WSW,257,8.0,11.0,68,0.00,,,0.00,LWC2 V0.39 B123,2013-05-09 02:38:00,
2013-05-08 20:43:00,71.1,60.0,29.86,South,190,3.0,5.0,68,0.00,,,0.00,LWC2 V0.39 B123,2013-05-09 02:43:00,
2013-05-08 20:48:00,70.9,59.8,29.86,WSW,250,5.0,9.0,68,0.00,,,0.00,LWC2 V0.39 B123,2013-05-09 02:48:00,
2013-05-08 20:53:00,70.7,60.0,29.86,WSW,238,1.0,6.0,69,0.00,,,0.00,LWC2 V0.39 B123,2013-05-09 02:53:00,
2013-05-08 20:58:00,70.4,60.1,29.86,SW,219,3.0,9.0,70,0.00,,,0.00,LWC2 V0.39 B123,2013-05-09 02:58:00,
2013-05-08 21:03:00,70.1,60.2,29.87,SW,216,4.0,4.0,71,0.00,,,0.00,LWC2 V0.39 B123,2013-05-09 03:03:00,
2013-05-08 21:08:00,69.7,60.6,29.87,SW,219,1.0,3.0,73,0.00,,,0.00,LWC2 V0.39 B123,2013-05-09 03:08:00,
2013-05-08 21:13:00,69.4,60.7,29.88,NW,312,3.0,5.0,74,0.00,,,0.00,LWC2 V0.39 B123,2013-05-09 03:13:00,
2013-05-08 21:18:00,69.0,61.1,29.88,West,280,0.0,1.0,76,0.00,,,0.01,LWC2 V0.39 B123,2013-05-09 03:18:00,
2013-05-08 21:23:00,68.6,61.1,29.88,NW,307,0.0,2.0,77,0.00,,,0.01,LWC2 V0.39 B123,2013-05-09 03:23:00,
2013-05-08 21:28:00,68.1,61.3,29.89,SSE,164,0.0,1.0,79,0.00,,,0.01,LWC2 V0.39 B123,2013-05-09 03:28:00,
2013-05-08 21:33:00,67.6,61.6,29.89,SSW,194,0.0,1.0,81,0.00,,,0.01,LWC2 V0.39 B123,2013-05-09 03:33:00,
2013-05-08 21:38:00,67.1,61.4,29.90,North,355,1.0,1.0,82,0.00,,,0.02,LWC2 V0.39 B123,2013-05-09 03:38:00,
2013-05-08 21:43:00,66.7,61.7,29.90,NW,311,0.0,0.0,84,0.00,,,0.02,LWC2 V0.39 B123,2013-05-09 03:43:00,
2013-05-08 21:48:00,66.2,61.5,29.91,WNW,303,0.0,1.0,85,0.07,,,0.03,LWC2 V0.39 B123,2013-05-09 03:48:00,
2013-05-08 21:53:00,66.0,61.7,29.91,SW,236,1.0,1.0,86,0.07,,,0.03,LWC2 V0.39 B123,2013-05-09 03:53:00,
2013-05-08 21:58:00,65.7,62.0,29.91,NW,314,0.0,2.0,88,0.08,,,0.04,LWC2 V0.39 B123,2013-05-09 03:58:00,
2013-05-08 22:01:00,65.5,61.8,29.91,NW,316,0.0,0.0,88,0.08,,,0.05,LWC2 V0.39 B123,2013-05-09 04:01:00,
2013-05-08 22:02:00,65.4,61.7,29.91,NW,317,0.0,0.0,88,0.08,,,0.05,LWC2 V0.39 B123,2013-05-09 04:02:00,
2013-05-08 22:03:00,65.4,62.1,29.91,NW,316,0.0,0.0,89,0.08,,,0.05,LWC2 V0.39 B123,2013-05-09 04:03:00,
2013-05-08 22:04:00,65.3,62.0,29.91,NW,316,0.0,0.0,89,0.08,,,0.05,LWC2 V0.39 B123,2013-05-09 04:04:00,
2013-05-08 22:09:00,65.0,62.0,29.91,NW,316,0.0,0.0,90,0.09,,,0.06,LWC2 V0.39 B123,2013-05-09 04:09:00,
2013-05-08 22:14:00,64.7,62.0,29.92,NW,319,0.0,0.0,91,0.10,,,0.06,LWC2 V0.39 B123,2013-05-09 04:14:00,
2013-05-08 22:16:00,64.7,62.0,29.92,WNW,300,0.0,0.0,91,0.10,,,0.07,LWC2 V0.39 B123,2013-05-09 04:16:00,
2013-05-08 22:21:00,64.6,62.2,29.92,NNW,327,2.0,5.0,92,0.14,,,0.08,LWC2 V0.39 B123,2013-05-09 04:21:00,
2013-05-08 22:26:00,64.7,62.3,29.92,West,269,4.0,5.0,92,0.16,,,0.09,LWC2 V0.39 B123,2013-05-09 04:26:00,
2013-05-08 22:31:00,64.6,62.2,29.92,NNW,335,1.0,3.0,92,0.12,,,0.10,LWC2 V0.39 B123,2013-05-09 04:31:00,
2013-05-08 22:36:00,64.4,62.0,29.93,WNW,300,0.0,2.0,92,0.11,,,0.11,LWC2 V0.39 B123,2013-05-09 04:36:00,
2013-05-08 22:41:00,64.3,62.2,29.93,NW,326,1.0,1.0,93,0.18,,,0.13,LWC2 V0.39 B123,2013-05-09 04:41:00,
2013-05-08 22:46:00,64.1,62.0,29.93,NW,324,0.0,1.0,93,0.24,,,0.15,LWC2 V0.39 B123,2013-05-09 04:46:00,
2013-05-08 22:51:00,64.0,61.9,29.92,WNW,297,0.0,1.0,93,0.38,,,0.18,LWC2 V0.39 B123,2013-05-09 04:51:00,
2013-05-08 22:56:00,63.9,62.1,29.92,WSW,246,1.0,1.0,94,0.24,,,0.00,LWC2 V0.39 B123,2013-05-09 04:56:00,
2013-05-08 23:01:00,63.8,61.7,29.91,SSE,166,2.0,4.0,93,0.17,,,0.00,LWC2 V0.39 B123,2013-05-09 05:01:00,
2013-05-08 23:06:00,63.6,61.5,29.88,ESE,119,4.0,6.0,93,0.18,,,0.00,LWC2 V0.39 B123,2013-05-09 05:06:00,
2013-05-08 23:11:00,63.4,61.3,29.88,WSW,257,0.0,3.0,93,0.19,,,0.00,LWC2 V0.39 B123,2013-05-09 05:11:00,
2013-05-08 23:16:00,63.3,61.2,29.87,SSW,205,0.0,1.0,93,0.16,,,0.00,LWC2 V0.39 B123,2013-05-09 05:16:00,
2013-05-08 23:21:00,63.3,61.2,29.88,North,11,2.0,2.0,93,0.09,,,0.00,LWC2 V0.39 B123,2013-05-09 05:21:00,
2013-05-08 23:26:00,63.1,61.0,29.87,NE,40,3.0,4.0,93,0.17,,,0.00,LWC2 V0.39 B123,2013-05-09 05:26:00,
2013-05-08 23:31:00,63.1,61.3,29.88,ESE,102,3.0,3.0,94,0.30,,,0.00,LWC2 V0.39 B123,2013-05-09 05:31:00,
2013-05-08 23:36:00,63.0,61.2,29.89,NE,39,3.0,6.0,94,0.24,,,0.00,LWC2 V0.39 B123,2013-05-09 05:36:00,
2013-05-08 23:41:00,63.0,61.2,29.83,ESE,122,4.0,6.0,94,0.66,,,0.00,LWC2 V0.39 B123,2013-05-09 05:41:00,
2013-05-08 23:46:00,62.9,61.1,29.85,ESE,102,5.0,5.0,94,0.25,,,0.00,LWC2 V0.39 B123,2013-05-09 05:46:00,
2013-05-08 23:51:00,62.7,60.9,29.87,SE,129,1.0,3.0,94,0.08,,,0.00,LWC2 V0.39 B123,2013-05-09 05:51:00,
2013-05-08 23:56:00,62.6,60.8,29.87,SW,219,2.0,5.0,94,0.05,,,0.00,LWC2 V0.39 B123,2013-05-09 05:56:00,